Weather Service Report


821 
ASUS45 KABQ 241201
RWRNM 
NEW MEXICO REGIONAL WEATHER ROUNDUP
NATIONAL WEATHER SERVICE ALBUQUERQUE NM
600 AM MDT SAT JUN 24 2017

NOTE: "FAIR" MEANS FEW OR NO CLOUDS BELOW 12,000 FEET AGL WITH NO
       SIGNIFICANT WEATHER OR OBSTRUCTIONS TO VISION.

      THIS PRODUCT IS RELEASED AS TWO VERSIONS.  ONE VERSION NEAR
      THE TOP OF THE HOUR CONTAINING PRELIMINARY DATA FROM ALBUQUERQUE
      AND OTHER STATIONS.  A FINAL VERSION WITH ADDITIONAL DATA IS 
      ISSUED ABOUT 10 MINUTES AFTER THE HOUR.
 
NMZ501-503-504-510>518-241300-
NORTHWEST PLATEAU/NORTHCENTRAL MOUNTAINS
  
CITY           SKY/WX    TMP DP  RH WIND       PRES   REMARKS
FARMINGTON     FAIR      60  42  51 NE6       30.17R                  
6HR MIN TEMP:  60; 6HR MAX TEMP:  71;                                

LOS ALAMOS     CLOUDY    61  49  66 S13       30.37S                  
SANTA FE       CLOUDY    64  52  64 S9        30.31R                  
6HR MIN TEMP:  63; 6HR MAX TEMP:  67;                                

TAOS           CLOUDY    55  41  58 SE6       30.37R                  
ANGEL FIRE     FAIR      41  39  93 CALM      30.45R                  

$$
NMZ402-403-502-505>509-241300-
WESTCENTRAL MOUNTAINS/SOUTHWEST MOUNTAINS
  
CITY           SKY/WX    TMP DP  RH WIND       PRES   REMARKS
GALLUP         FAIR      57  33  40 NE5       30.26R                  
6HR MIN TEMP:  55; 6HR MAX TEMP:  67;                                

GRANTS         FAIR      63  54  72 S12       30.30R                  
SILVER CITY    FAIR      61  51  70 N6        30.17R                  

$$
NMZ407-409-411-412-241300-
SOUTHERN DESERTS
  
CITY           SKY/WX    TMP DP  RH WIND       PRES   REMARKS
DEMING         FAIR      74  53  48 E13       30.09R                  
6HR MIN TEMP:  74; 6HR MAX TEMP:  88;                                

LAS CRUCES     FAIR      79  53  41 SE13G18   30.11R                  
HOLLOMAN AFB   FAIR      74  58  56 E6        30.10R                  
T OR C         FAIR      75  58  55 N13       30.14R                  
6HR MIN TEMP:  75; 6HR MAX TEMP:  82;                                


$$
NMZ519>523-241300-
CENTRAL VALLEYS/CENTRAL HIGHLANDS
  
CITY           SKY/WX    TMP DP  RH WIND       PRES   REMARKS
ALBUQUERQUE    FAIR      68  51  54 E18       30.23R                  
6HR MIN TEMP:  68; 6HR MAX TEMP:  74;                                

DOUBLE EAGLE   CLEAR     63  52  67 SE6       30.27                   
MORIARTY ARPT  CLOUDY    63  50  64 SE7       30.33S                  
6HR MIN TEMP:  63; 6HR MAX TEMP:  67;                                

CLINES CORNERS FAIR      53  46  77 E8        30.38R                  
6HR MIN TEMP:  53; 6HR MAX TEMP:  60;                                

BELEN          NOT AVBL                                               
SOCORRO        FAIR      69  56  62 CALM      30.19R                  
6HR MIN TEMP:  69; 6HR MAX TEMP:  78;                                


$$
NMZ524>526-539-540-241300-
SOUTHCENTRAL MOUNTAINS
  
CITY           SKY/WX    TMP DP  RH WIND       PRES   REMARKS
RUIDOSO        NOT AVBL                                               

$$
NMZ527>531-241300-
NORTHEAST HIGHLANDS/NORTHEAST PLAINS
  
CITY           SKY/WX    TMP DP  RH WIND       PRES   REMARKS
LAS VEGAS      CLOUDY    56  47  71 E6        30.37R                  
6HR MIN TEMP:  56; 6HR MAX TEMP:  60;                                

RATON          CLOUDY    55  46  71 SW7       30.35R                  
6HR MIN TEMP:  54; 6HR MAX TEMP:  60;                                

CLAYTON        CLOUDY    56  48  74 CALM      30.31R                  
6HR MIN TEMP:  55; 6HR MAX TEMP:  60;                                


$$
NMZ532>537-241300-
EASTCENTRAL PLAINS
  
CITY           SKY/WX    TMP DP  RH WIND       PRES   REMARKS
SANTA ROSA     CLOUDY    63  47  57 NE12      30.27R                  
TUCUMCARI      CLOUDY    64  50  60 E10       30.25R                  
6HR MIN TEMP:  64; 6HR MAX TEMP:  70; 6HR PCP: TRACE;                

CANNON AFB     CLOUDY    60  51  72 E17       30.27R                  
6HR MIN TEMP:  60; 6HR MAX TEMP:  70;                                

CLOVIS AIRPORT CLOUDY    59  51  75 E14       30.27R                  

$$
NMZ028-029-538-241300-
SOUTHEAST PLAINS
  
CITY           SKY/WX    TMP DP  RH WIND       PRES   REMARKS
ROSWELL        MOCLDY    70  52  52 NE13      30.19R                  
6HR MIN TEMP:  69; 6HR MAX TEMP:  80;                                

ARTESIA        FAIR      68  52  56 N10       30.18R                  
CARLSBAD       FAIR      71  56  58 NE9       30.12R                  
6HR MIN TEMP:  70; 6HR MAX TEMP:  80;                                

HOBBS          CLEAR     64  52  63 N12       30.18R                  


$$
  

Return to Home page


Western Regional Climate Center, wrcc@dri.edu